Flag for Germany Past Weather in Neustadt am Rübenberge, Lower Saxony, Germany — Yesterday and Last 2 Weeks

Now
25 °F

Ice fog.


Feels Like: 19 °F
Forecast: 20 / 30 °F
Wind: 5 mph from Northwest

Location: Wunstorf Airport

Current Time: Jan 16, 2017 at 12:07:35 pm

Latest Report: Jan 16, 2017 at 11:20 am


Visibility: 0 mi

Pressure: 30.33 "Hg

Humidity: 93%

Dew Point: 23 °F

Location of Neustadt am RübenbergeLocation

Past Weather in Neustadt am Rübenberge — Graph

°F

Neustadt am Rübenberge Temperature Yesterday

Maximum temperature yesterday: 36 °F (at 2:20 pm)
Minimum temperature yesterday: 25 °F (at 11:20 pm)
Average temperature yesterday: 31 °F

High & Low Weather Summary for the Past Weeks

 TemperatureHumidityPressure
High45 °F (Jan 11, 3:10 pm)100% (Jan 7, 5:20 pm)30.77 "Hg (Jan 7, 5:20 pm)
Low12 °F (Jan 6, 8:20 am)51% (Jan 4, 10:20 pm)28.94 "Hg (Jan 13, 4:20 am)
Average33 °F84%29.98 "Hg
* Reported Jan 2 10:20 am — Jan 16 10:20 am, Neustadt am Rübenberge, Weather by CustomWeather, © 2017

Note: Actual official high and low records may vary slightly from our data, if they occured in-between our weather recording intervals... More about our weather records

Advertising

Neustadt am Rübenberge Weather History for the Previous 24 Hours

Scroll right to see more
 ConditionsComfort  
Time TempWeatherWind HumidityBarometerVisibility
10:20 am
Mon, Jan 16
25 °FIce fog.3 mph93%30.33 "Hg0 mi
9:20 am23 °FIce fog.3 mph93%30.30 "Hg0 mi
8:49 am23 °FIce fog.2 mph93%30.30 "Hg0 mi
8:20 am23 °FIce fog.3 mph93%30.30 "Hg0 mi
7:20 am25 °FIce fog.3 mph93%30.27 "Hg0 mi
6:20 am23 °FIce fog.2 mph100%30.24 "Hg0 mi
5:20 am25 °FIce fog.1 mph100%30.24 "Hg0 mi
4:20 am27 °FChilly.1 mph93%30.21 "HgN/A
3:20 am28 °FChilly.1 mph93%30.21 "HgN/A
2:20 am28 °FChilly.2 mph100%30.21 "HgN/A
1:20 am28 °FChilly.2 mph100%30.21 "HgN/A
12:20 am28 °FChilly.2 mph100%30.18 "HgN/A
11:20 pm
Sun, Jan 15
25 °FCold.2 mph93%30.18 "HgN/A
10:20 pm27 °FChilly.2 mph100%30.15 "HgN/A
9:20 pm28 °FChilly.2 mph93%30.15 "HgN/A
8:20 pm30 °FChilly.6 mph93%30.15 "HgN/A
7:20 pm30 °FChilly.8 mph93%30.12 "HgN/A
6:20 pm32 °FChilly.9 mph87%30.12 "HgN/A
5:20 pm32 °FChilly.8 mph87%30.09 "HgN/A
4:20 pm34 °FChilly.9 mph81%30.09 "HgN/A
3:20 pm34 °FChilly.8 mph87%30.07 "HgN/A
2:20 pm36 °FChilly.10 mph81%30.07 "HgN/A
1:20 pm34 °FChilly.12 mph87%30.04 "HgN/A
12:20 pm34 °FChilly.13 mph87%30.04 "HgN/A
Weather by CustomWeather, © 2017

See weather overviewHow to use our weather pages